QPF
0.04 0.06 0.07 0.09 0.08 0.07 0.06 0.05 0.04 0.05 0.05 0.07 0.07 0.09 0.12 0.11 0.09 0.08 0.08 0.09 0.10 0.08 0.08 0.08 0.09 0.10 0.10 0.11 0.11 0.09 0.09 0.08 0.07 0.07 0.05 0.04 0.04 0.03 0.02 0.02 0.02 0.02 0.02
0.02 0.03 0.05 0.09 0.09 0.08 0.08 0.07 0.05 0.05 0.06 0.07 0.07 0.09 0.10 0.11 0.10 0.10 0.09 0.10 0.11 0.11 0.11 0.09 0.08 0.09 0.10 0.10 0.08 0.08 0.08 0.08 0.08 0.08 0.08 0.06 0.04 0.03 0.02 0.02 0.01 0.02 0.02
0.02 0.02 0.02 0.04 0.05 0.05 0.06 0.07 0.06 0.07 0.09 0.12 0.12 0.10 0.09 0.07 0.07 0.10 0.13 0.15 0.15 0.12 0.12 0.13 0.11 0.12 0.11 0.09 0.07 0.07 0.08 0.09 0.10 0.11 0.12 0.10 0.07 0.05 0.04 0.02 0.02 0.02 0.02
0.02 0.01 0.02 0.02 0.02 0.02 0.03 0.06 0.06 0.06 0.07 0.09 0.11 0.10 0.08 0.07 0.08 0.10 0.10 0.14 0.18 0.18 0.17 0.18 0.17 0.14 0.11 0.09 0.07 0.07 0.07 0.08 0.09 0.10 0.10 0.09 0.08 0.07 0.05 0.03 0.02 0.02 0.01
0.02 0.02 0.02 0.02 0.01 0.01 0.01 0.03 0.03 0.04 0.04 0.06 0.08 0.08 0.06 0.07 0.08 0.11 0.12 0.11 0.12 0.15 0.17 0.19 0.19 0.15 0.11 0.08 0.07 0.08 0.07 0.07 0.08 0.09 0.09 0.09 0.08 0.07 0.06 0.04 0.02 0.01 0.01
0.01 0.01 0.01 0.02 0.01 0.01 0.01 0.02 0.03 0.03 0.04 0.03 0.03 0.04 0.05 0.06 0.08 0.10 0.13 0.15 0.14 0.15 0.17 0.17 0.17 0.16 0.13 0.10 0.07 0.07 0.07 0.07 0.08 0.09 0.09 0.09 0.08 0.08 0.08 0.06 0.04 0.02 0.01
0.01 0.01 0.02 0.02 0.02 0.02 0.02 0.03 0.03 0.03 0.02 0.02 0.02 0.02 0.04 0.06 0.08 0.09 0.10 0.12 0.13 0.15 0.16 0.15 0.15 0.15 0.13 0.12 0.10 0.09 0.08 0.08 0.10 0.11 0.10 0.08 0.07 0.07 0.07 0.06 0.05 0.04 0.02
0.01 0.01 0.02 0.02 0.03 0.02 0.03 0.03 0.03 0.03 0.02 0.03 0.03 0.03 0.04 0.05 0.05 0.05 0.06 0.08 0.13 0.14 0.15 0.17 0.18 0.17 0.15 0.12 0.10 0.10 0.09 0.09 0.10 0.10 0.11 0.11 0.08 0.07 0.07 0.06 0.05 0.04 0.03
0.02 0.02 0.02 0.02 0.02 0.02 0.03 0.04 0.04 0.04 0.04 0.05 0.05 0.04 0.03 0.04 0.04 0.05 0.05 0.07 0.10 0.13 0.15 0.15 0.15 0.13 0.12 0.11 0.10 0.08 0.05 0.06 0.07 0.08 0.10 0.10 0.08 0.07 0.06 0.05 0.06 0.06 0.05
0.01 0.01 0.02 0.02 0.01 0.01 0.02 0.04 0.06 0.08 0.11 0.13 0.10 0.05 0.03 0.03 0.04 0.04 0.05 0.08 0.11 0.11 0.11 0.12 0.12 0.11 0.10 0.08 0.08 0.06 0.05 0.04 0.06 0.08 0.10 0.10 0.10 0.09 0.07 0.05 0.06 0.06 0.06
0.01 0.01 0.03 0.03 0.02 0.02 0.03 0.06 0.09 0.10 0.12 0.14 0.13 0.06 0.03 0.03 0.04 0.06 0.08 0.12 0.14 0.13 0.11 0.09 0.10 0.10 0.10 0.08 0.07 0.05 0.04 0.04 0.04 0.05 0.07 0.10 0.12 0.11 0.09 0.08 0.07 0.08 0.08
0.02 0.01 0.01 0.02 0.03 0.04 0.06 0.09 0.11 0.12 0.11 0.12 0.13 0.09 0.07 0.07 0.05 0.05 0.07 0.09 0.08 0.06 0.07 0.08 0.08 0.08 0.08 0.07 0.05 0.04 0.04 0.05 0.05 0.05 0.06 0.08 0.10 0.11 0.10 0.10 0.09 0.09 0.08
0.01 0.01 0.01 0.02 0.02 0.04 0.06 0.08 0.11 0.13 0.13 0.12 0.11 0.09 0.08 0.05 0.03 0.03 0.05 0.08 0.11 0.11 0.08 0.09 0.08 0.08 0.07 0.05 0.04 0.03 0.03 0.04 0.05 0.06 0.08 0.08 0.09 0.10 0.11 0.10 0.08 0.08 0.07
0.02 0.02 0.02 0.01 0.02 0.01 0.02 0.04 0.06 0.09 0.14 0.16 0.16 0.09 0.07 0.06 0.05 0.03 0.03 0.04 0.07 0.12 0.13 0.09 0.07 0.06 0.06 0.05 0.04 0.03 0.03 0.03 0.03 0.04 0.05 0.05 0.04 0.05 0.06 0.06 0.05 0.05 0.05
0.02 0.02 0.02 0.02 0.02 0.02 0.02 0.04 0.05 0.06 0.08 0.12 0.15 0.12 0.09 0.08 0.06 0.05 0.04 0.04 0.05 0.07 0.09 0.09 0.07 0.05 0.05 0.04 0.04 0.03 0.03 0.03 0.03 0.03 0.04 0.04 0.03 0.02 0.02 0.03 0.03 0.03 0.05
0.02 0.02 0.02 0.02 0.02 0.02 0.03 0.04 0.05 0.05 0.05 0.07 0.09 0.09 0.06 0.05 0.05 0.05 0.04 0.04 0.05 0.07 0.09 0.10 0.10 0.08 0.05 0.04 0.03 0.02 0.02 0.03 0.03 0.03 0.03 0.03 0.02 0.02 0.02 0.02 0.02 0.02 0.04
0.04 0.05 0.04 0.02 0.02 0.02 0.02 0.03 0.03 0.04 0.04 0.05 0.05 0.06 0.06 0.05 0.06 0.05 0.05 0.05 0.04 0.05 0.05 0.05 0.05 0.05 0.05 0.04 0.02 0.02 0.02 0.03 0.03 0.03 0.03 0.02 0.02 0.01 0.01 0.01 0.01 0.01 0.02
0.04 0.04 0.03 0.02 0.02 0.02 0.02 0.02 0.02 0.02 0.03 0.03 0.03 0.04 0.06 0.06 0.05 0.05 0.05 0.04 0.04 0.04 0.05 0.05 0.04 0.03 0.03 0.03 0.02 0.01 0.02 0.03 0.03 0.02 0.02 0.02 0.02 0.02 0.02 0.02 0.02 0.02 0.02
0.03 0.02 0.03 0.02 0.01 0.01 0.01 0.01 0.01 0.01 0.01 0.02 0.02 0.03 0.04 0.05 0.05 0.06 0.05 0.04 0.04 0.05 0.05 0.05 0.03 0.02 0.03 0.03 0.02 0.01 0.02 0.03 0.03 0.02 0.02 0.01 0.01 0.01 0.01 0.02 0.02 0.03 0.02
0.03 0.02 0.01 0.01 0.01 0.00 0.00 0.01 0.01 0.02 0.02 0.03 0.03 0.03 0.03 0.04 0.04 0.06 0.06 0.03 0.03 0.04 0.04 0.03 0.02 0.02 0.02 0.02 0.01 0.01 0.02 0.02 0.03 0.02 0.02 0.01 0.00 0.00 0.00 0.01 0.02 0.02 0.02
0.02 0.01 0.01 0.00 0.00 0.00 0.01 0.01 0.02 0.03 0.03 0.04 0.03 0.02 0.03 0.03 0.03 0.04 0.04 0.03 0.02 0.03 0.03 0.02 0.02 0.02 0.02 0.02 0.01 0.01 0.02 0.02 0.03 0.03 0.03 0.02 0.01 0.00 0.00 0.00 0.01 0.01 0.00
0.02 0.01 0.01 0.01 0.00 0.00 0.01 0.01 0.01 0.02 0.05 0.05 0.04 0.03 0.03 0.03 0.04 0.05 0.04 0.03 0.03 0.03 0.02 0.02 0.03 0.03 0.02 0.02 0.02 0.02 0.02 0.03 0.03 0.04 0.03 0.03 0.02 0.01 0.00 0.00 0.00 0.00 0.00
0.02 0.01 0.01 0.00 0.01 0.01 0.01 0.01 0.01 0.02 0.03 0.04 0.04 0.04 0.04 0.04 0.05 0.06 0.06 0.05 0.04 0.03 0.02 0.02 0.02 0.02 0.02 0.03 0.03 0.02 0.02 0.02 0.02 0.02 0.02 0.01 0.01 0.00 0.00 0.00 0.00 0.00 0.01
0.01 0.01 0.01 0.01 0.01 0.01 0.01 0.01 0.02 0.02 0.04 0.04 0.03 0.04 0.05 0.05 0.06 0.07 0.06 0.04 0.02 0.02 0.01 0.02 0.02 0.02 0.02 0.02 0.02 0.02 0.02 0.02 0.02 0.02 0.02 0.01 0.01 0.00 0.01 0.01 0.01 0.01 0.01
0.01 0.01 0.01 0.01 0.01 0.01 0.02 0.03 0.05 0.06 0.05 0.04 0.04 0.04 0.06 0.06 0.06 0.05 0.04 0.03 0.02 0.01 0.01 0.02 0.01 0.01 0.02 0.02 0.01 0.02 0.02 0.01 0.01 0.02 0.02 0.01 0.01 0.01 0.01 0.01 0.01 0.01 0.01
0.01 0.01 0.01 0.01 0.01 0.02 0.03 0.05 0.05 0.04 0.03 0.03 0.03 0.04 0.05 0.05 0.06 0.04 0.03 0.03 0.02 0.02 0.01 0.01 0.01 0.01 0.02 0.02 0.01 0.01 0.01 0.01 0.01 0.02 0.02 0.01 0.01 0.01 0.01 0.01 0.01 0.01 0.01
MSLP
999.35 999.25 999.33 999.58 999.98 1000.53 1001.17 1001.85 1002.54 1003.18 1003.74 1004.21 1004.59 1004.90 1005.18 1005.45 1005.74 1006.07 1006.44 1006.83 1007.20 1007.55 1007.84 1008.07 1008.26 1008.43 1008.62 1008.85 1009.15 1009.51 1009.94 1010.37 1010.79 1011.13 1011.36 1011.47 1011.45 1011.32 1011.11 1010.88 1010.65 1010.45 1010.31
999.53 999.34 999.29 999.41 999.68 1000.11 1000.67 1001.30 1001.97 1002.61 1003.20 1003.69 1004.09 1004.40 1004.67 1004.92 1005.18 1005.49 1005.84 1006.22 1006.61 1006.97 1007.28 1007.54 1007.74 1007.91 1008.08 1008.30 1008.58 1008.95 1009.37 1009.84 1010.29 1010.68 1010.97 1011.13 1011.15 1011.05 1010.86 1010.62 1010.38 1010.16 1010.00
1000.16 999.88 999.71 999.67 999.79 1000.06 1000.48 1001.01 1001.61 1002.21 1002.78 1003.27 1003.66 1003.97 1004.22 1004.43 1004.66 1004.93 1005.24 1005.60 1005.98 1006.35 1006.68 1006.96 1007.18 1007.36 1007.55 1007.76 1008.04 1008.40 1008.83 1009.31 1009.80 1010.23 1010.56 1010.77 1010.83 1010.77 1010.61 1010.39 1010.16 1009.96 1009.79
1001.23 1000.88 1000.58 1000.38 1000.30 1000.37 1000.61 1000.99 1001.47 1002.00 1002.52 1002.98 1003.36 1003.64 1003.86 1004.04 1004.22 1004.43 1004.70 1005.02 1005.38 1005.74 1006.09 1006.39 1006.64 1006.85 1007.06 1007.29 1007.58 1007.94 1008.38 1008.86 1009.36 1009.82 1010.18 1010.43 1010.53 1010.51 1010.39 1010.21 1010.01 1009.83 1009.69
1002.61 1002.20 1001.78 1001.39 1001.10 1000.95 1000.98 1001.17 1001.50 1001.91 1002.36 1002.77 1003.12 1003.39 1003.58 1003.73 1003.86 1004.02 1004.24 1004.52 1004.84 1005.19 1005.54 1005.87 1006.15 1006.40 1006.65 1006.91 1007.21 1007.59 1008.03 1008.51 1009.01 1009.48 1009.86 1010.13 1010.27 1010.29 1010.21 1010.07 1009.92 1009.78 1009.67
1004.13 1003.65 1003.09 1002.51 1002.00 1001.61 1001.40 1001.38 1001.54 1001.83 1002.19 1002.56 1002.89 1003.15 1003.33 1003.46 1003.57 1003.69 1003.86 1004.09 1004.38 1004.71 1005.06 1005.41 1005.72 1006.02 1006.30 1006.60 1006.93 1007.32 1007.76 1008.25 1008.74 1009.20 1009.59 1009.88 1010.05 1010.10 1010.07 1009.98 1009.87 1009.78 1009.71
1005.57 1004.99 1004.28 1003.51 1002.77 1002.14 1001.68 1001.45 1001.43 1001.60 1001.89 1002.23 1002.56 1002.84 1003.04 1003.18 1003.29 1003.39 1003.53 1003.73 1003.98 1004.29 1004.63 1004.99 1005.33 1005.67 1006.00 1006.33 1006.69 1007.10 1007.54 1008.02 1008.51 1008.97 1009.36 1009.66 1009.85 1009.94 1009.94 1009.90 1009.84 1009.79 1009.76
1006.73 1006.04 1005.17 1004.20 1003.23 1002.36 1001.68 1001.25 1001.08 1001.14 1001.38 1001.71 1002.08 1002.41 1002.67 1002.86 1003.00 1003.11 1003.24 1003.40 1003.63 1003.91 1004.23 1004.59 1004.95 1005.32 1005.68 1006.05 1006.44 1006.86 1007.32 1007.80 1008.28 1008.74 1009.13 1009.44 1009.66 1009.78 1009.82 1009.82 1009.80 1009.79 1009.79
1007.52 1006.68 1005.64 1004.48 1003.30 1002.23 1001.35 1000.75 1000.46 1000.46 1000.68 1001.04 1001.47 1001.89 1002.24 1002.51 1002.70 1002.84 1002.96 1003.11 1003.30 1003.55 1003.85 1004.19 1004.56 1004.94 1005.33 1005.73 1006.15 1006.59 1007.06 1007.55 1008.03 1008.49 1008.90 1009.23 1009.47 1009.63 1009.71 1009.74 1009.76 1009.77 1009.80
1007.92 1006.93 1005.73 1004.39 1003.04 1001.80 1000.79 1000.07 999.71 999.67 999.90 1000.33 1000.84 1001.36 1001.82 1002.18 1002.43 1002.61 1002.74 1002.87 1003.02 1003.23 1003.49 1003.81 1004.16 1004.55 1004.95 1005.38 1005.82 1006.29 1006.77 1007.27 1007.77 1008.24 1008.67 1009.02 1009.30 1009.49 1009.61 1009.68 1009.72 1009.75 1009.79
1008.05 1006.91 1005.57 1004.10 1002.64 1001.29 1000.19 999.42 999.03 999.00 999.27 999.76 1000.37 1000.99 1001.54 1001.98 1002.29 1002.50 1002.63 1002.72 1002.83 1002.99 1003.20 1003.48 1003.81 1004.19 1004.60 1005.05 1005.51 1006.00 1006.51 1007.03 1007.55 1008.04 1008.49 1008.87 1009.18 1009.41 1009.56 1009.65 1009.70 1009.74 1009.77
1008.06 1006.81 1005.38 1003.85 1002.33 1000.95 999.82 999.04 998.66 998.66 998.99 999.54 1000.22 1000.91 1001.53 1002.02 1002.35 1002.56 1002.66 1002.72 1002.77 1002.86 1003.02 1003.26 1003.56 1003.93 1004.35 1004.81 1005.30 1005.81 1006.34 1006.89 1007.42 1007.94 1008.41 1008.82 1009.16 1009.41 1009.58 1009.69 1009.75 1009.77 1009.79
1008.12 1006.81 1005.35 1003.82 1002.32 1000.97 999.88 999.14 998.80 998.84 999.20 999.79 1000.50 1001.21 1001.85 1002.34 1002.66 1002.82 1002.88 1002.87 1002.86 1002.89 1003.00 1003.19 1003.47 1003.84 1004.27 1004.74 1005.26 1005.79 1006.35 1006.91 1007.46 1007.99 1008.48 1008.91 1009.26 1009.53 1009.71 1009.82 1009.87 1009.88 1009.87
1008.33 1007.03 1005.61 1004.13 1002.71 1001.45 1000.44 999.77 999.48 999.56 999.93 1000.52 1001.20 1001.88 1002.47 1002.91 1003.17 1003.27 1003.26 1003.18 1003.10 1003.08 1003.14 1003.30 1003.58 1003.95 1004.39 1004.89 1005.43 1005.99 1006.56 1007.13 1007.69 1008.22 1008.71 1009.14 1009.50 1009.77 1009.95 1010.05 1010.08 1010.06 1010.02
1008.69 1007.45 1006.13 1004.78 1003.48 1002.34 1001.45 1000.86 1000.62 1000.70 1001.06 1001.59 1002.21 1002.80 1003.30 1003.63 1003.80 1003.81 1003.72 1003.58 1003.45 1003.38 1003.42 1003.58 1003.86 1004.25 1004.72 1005.25 1005.81 1006.39 1006.97 1007.54 1008.10 1008.62 1009.09 1009.50 1009.84 1010.10 1010.26 1010.35 1010.36 1010.32 1010.24
1009.13 1008.00 1006.82 1005.62 1004.48 1003.48 1002.70 1002.19 1001.98 1002.05 1002.35 1002.79 1003.29 1003.76 1004.13 1004.35 1004.41 1004.33 1004.17 1003.98 1003.83 1003.75 1003.80 1003.98 1004.29 1004.71 1005.22 1005.78 1006.36 1006.95 1007.53 1008.09 1008.62 1009.11 1009.55 1009.93 1010.24 1010.47 1010.62 1010.68 1010.67 1010.60 1010.50
1009.53 1008.53 1007.50 1006.46 1005.48 1004.62 1003.94 1003.48 1003.28 1003.31 1003.52 1003.85 1004.22 1004.55 1004.78 1004.88 1004.85 1004.72 1004.52 1004.32 1004.17 1004.13 1004.21 1004.44 1004.80 1005.27 1005.82 1006.41 1007.01 1007.60 1008.16 1008.69 1009.18 1009.63 1010.02 1010.36 1010.64 1010.84 1010.96 1011.00 1010.97 1010.89 1010.77
1009.76 1008.90 1008.01 1007.12 1006.27 1005.52 1004.91 1004.49 1004.26 1004.23 1004.34 1004.55 1004.78 1004.98 1005.11 1005.12 1005.04 1004.88 1004.69 1004.53 1004.44 1004.46 1004.62 1004.92 1005.34 1005.87 1006.45 1007.06 1007.66 1008.24 1008.78 1009.27 1009.71 1010.10 1010.44 1010.73 1010.96 1011.13 1011.23 1011.26 1011.22 1011.13 1011.00
1009.79 1009.04 1008.27 1007.49 1006.74 1006.05 1005.48 1005.05 1004.79 1004.67 1004.69 1004.78 1004.91 1005.01 1005.07 1005.05 1004.96 1004.84 1004.71 1004.63 1004.64 1004.76 1005.01 1005.39 1005.88 1006.45 1007.06 1007.68 1008.27 1008.82 1009.32 1009.75 1010.14 1010.47 1010.76 1011.00 1011.20 1011.34 1011.42 1011.44 1011.40 1011.31 1011.19
1009.66 1009.00 1008.30 1007.59 1006.89 1006.23 1005.65 1005.19 1004.87 1004.68 1004.60 1004.61 1004.66 1004.71 1004.75 1004.75 1004.71 1004.67 1004.65 1004.69 1004.82 1005.05 1005.41 1005.87 1006.43 1007.03 1007.65 1008.25 1008.82 1009.32 1009.76 1010.14 1010.46 1010.74 1010.97 1011.17 1011.33 1011.45 1011.52 1011.54 1011.51 1011.43 1011.31
1009.50 1008.88 1008.23 1007.54 1006.84 1006.17 1005.56 1005.05 1004.66 1004.40 1004.26 1004.20 1004.22 1004.26 1004.32 1004.38 1004.44 1004.52 1004.63 1004.81 1005.07 1005.42 1005.87 1006.41 1007.00 1007.61 1008.22 1008.80 1009.31 1009.76 1010.14 1010.45 1010.70 1010.92 1011.11 1011.27 1011.40 1011.50 1011.56 1011.58 1011.56 1011.49 1011.38
1009.44 1008.85 1008.20 1007.50 1006.78 1006.07 1005.42 1004.85 1004.40 1004.08 1003.89 1003.81 1003.81 1003.88 1004.00 1004.15 1004.32 1004.53 1004.78 1005.09 1005.47 1005.93 1006.45 1007.03 1007.63 1008.24 1008.81 1009.33 1009.79 1010.16 1010.47 1010.71 1010.91 1011.07 1011.21 1011.33 1011.43 1011.52 1011.57 1011.60 1011.58 1011.51 1011.41
1009.61 1009.02 1008.37 1007.65 1006.89 1006.14 1005.43 1004.82 1004.32 1003.96 1003.74 1003.65 1003.67 1003.78 1003.97 1004.21 1004.49 1004.81 1005.19 1005.61 1006.08 1006.61 1007.17 1007.76 1008.35 1008.92 1009.44 1009.89 1010.27 1010.57 1010.80 1010.98 1011.11 1011.22 1011.31 1011.40 1011.47 1011.54 1011.59 1011.61 1011.59 1011.53 1011.44
1010.05 1009.47 1008.80 1008.06 1007.27 1006.49 1005.75 1005.09 1004.57 1004.19 1003.97 1003.88 1003.93 1004.09 1004.34 1004.65 1005.02 1005.43 1005.88 1006.37 1006.90 1007.45 1008.03 1008.60 1009.14 1009.65 1010.10 1010.48 1010.78 1011.00 1011.16 1011.27 1011.34 1011.40 1011.45 1011.50 1011.55 1011.59 1011.63 1011.64 1011.62 1011.56 1011.46
1010.71 1010.14 1009.47 1008.72 1007.93 1007.14 1006.39 1005.73 1005.21 1004.84 1004.62 1004.56 1004.63 1004.83 1005.11 1005.47 1005.89 1006.34 1006.83 1007.35 1007.88 1008.42 1008.96 1009.48 1009.97 1010.41 1010.78 1011.08 1011.30 1011.45 1011.54 1011.59 1011.60 1011.61 1011.62 1011.63 1011.65 1011.67 1011.69 1011.69 1011.66 1011.60 1011.51
1011.47 1010.92 1010.27 1009.54 1008.77 1008.00 1007.29 1006.66 1006.17 1005.83 1005.64 1005.60 1005.70 1005.91 1006.22 1006.59 1007.01 1007.46 1007.94 1008.43 1008.92 1009.41 1009.90 1010.35 1010.76 1011.12 1011.42 1011.64 1011.79 1011.88 1011.91 1011.91 1011.88 1011.84 1011.81 1011.79 1011.78 1011.78 1011.77 1011.76 1011.72 1011.66 1011.57
Thickness
5757 5756 5754 5751 5748 5744 5741 5737 5732 5727 5723 5719 5715 5712 5708 5705 5703 5701 5698 5694 5690 5688 5686 5686 5684 5683 5682 5680 5680 5678 5678 5678 5678 5677 5678 5681 5682 5682 5682 5682 5683 5685 5685
5748 5745 5745 5743 5740 5737 5734 5730 5726 5722 5718 5715 5711 5707 5703 5700 5698 5695 5692 5688 5685 5682 5682 5680 5679 5677 5675 5674 5673 5671 5671 5672 5672 5670 5669 5670 5673 5675 5678 5677 5677 5677 5679
5741 5738 5736 5735 5733 5731 5728 5725 5720 5716 5713 5709 5705 5701 5696 5693 5691 5689 5687 5684 5681 5678 5676 5674 5672 5670 5669 5669 5667 5666 5664 5663 5665 5665 5662 5662 5664 5668 5671 5671 5671 5671 5672
5737 5734 5731 5727 5725 5724 5723 5719 5715 5711 5707 5703 5700 5695 5690 5687 5684 5682 5681 5678 5675 5673 5670 5668 5666 5665 5664 5662 5661 5660 5659 5657 5656 5657 5657 5656 5658 5655 5658 5663 5666 5666 5665
5731 5728 5725 5722 5720 5718 5716 5712 5708 5705 5702 5698 5694 5689 5685 5682 5680 5677 5674 5672 5670 5667 5665 5663 5661 5659 5658 5655 5653 5652 5651 5651 5650 5650 5650 5650 5650 5650 5648 5650 5655 5658 5661
5723 5721 5719 5716 5713 5711 5709 5706 5702 5698 5695 5692 5689 5684 5679 5675 5672 5670 5668 5666 5665 5662 5659 5658 5655 5653 5651 5648 5647 5645 5645 5644 5643 5643 5644 5643 5644 5645 5645 5646 5647 5650 5653
5715 5713 5710 5708 5705 5703 5701 5699 5696 5691 5689 5686 5683 5679 5674 5670 5667 5665 5663 5661 5659 5656 5653 5651 5648 5646 5643 5641 5640 5640 5639 5638 5636 5637 5638 5639 5640 5640 5641 5640 5642 5644 5647
5707 5705 5702 5700 5698 5697 5694 5692 5689 5685 5683 5681 5678 5674 5670 5668 5665 5661 5658 5656 5654 5651 5647 5644 5642 5640 5637 5635 5634 5635 5634 5633 5631 5632 5631 5632 5634 5634 5635 5634 5634 5635 5640
5699 5697 5695 5693 5691 5690 5686 5683 5680 5678 5677 5675 5673 5669 5665 5662 5659 5656 5653 5652 5649 5647 5643 5639 5636 5634 5631 5629 5628 5629 5628 5627 5627 5627 5627 5627 5629 5629 5630 5629 5629 5628 5631
5692 5689 5687 5684 5683 5682 5678 5676 5675 5672 5671 5668 5666 5663 5659 5657 5654 5652 5649 5646 5644 5641 5638 5635 5633 5630 5627 5625 5624 5624 5624 5622 5622 5622 5621 5622 5624 5624 5625 5625 5626 5626 5626
5684 5682 5679 5677 5677 5675 5673 5670 5669 5667 5664 5661 5658 5655 5653 5652 5650 5647 5645 5642 5639 5637 5635 5632 5629 5626 5624 5622 5620 5619 5618 5618 5618 5617 5618 5618 5618 5619 5621 5621 5621 5622 5623
5677 5675 5672 5670 5670 5668 5666 5664 5663 5661 5658 5655 5652 5648 5646 5645 5643 5642 5640 5638 5635 5634 5633 5629 5626 5623 5621 5619 5617 5616 5615 5614 5613 5613 5613 5613 5614 5613 5615 5615 5616 5616 5617
5669 5667 5664 5663 5662 5661 5660 5659 5657 5654 5652 5649 5646 5643 5640 5638 5637 5636 5635 5634 5632 5630 5628 5625 5622 5620 5618 5616 5615 5613 5612 5611 5610 5609 5609 5608 5608 5608 5609 5609 5610 5611 5613
5661 5658 5656 5655 5654 5654 5653 5653 5651 5649 5646 5643 5641 5637 5634 5632 5632 5631 5630 5629 5627 5625 5624 5622 5619 5617 5616 5614 5612 5610 5609 5608 5607 5606 5605 5604 5604 5603 5603 5604 5603 5604 5605
5654 5651 5649 5648 5647 5646 5646 5646 5644 5642 5640 5638 5635 5633 5631 5629 5628 5626 5625 5624 5623 5622 5620 5618 5615 5614 5613 5610 5607 5606 5606 5604 5603 5602 5601 5599 5597 5596 5596 5597 5598 5598 5599
5647 5646 5644 5643 5641 5640 5639 5639 5638 5637 5635 5632 5631 5630 5627 5625 5624 5622 5621 5619 5618 5617 5615 5613 5612 5610 5609 5602 5599 5598 5600 5600 5599 5598 5597 5596 5595 5592 5590 5589 5589 5589 5592
5641 5641 5640 5638 5636 5635 5634 5634 5633 5632 5631 5629 5628 5627 5624 5622 5621 5620 5618 5616 5614 5613 5612 5610 5609 5607 5603 5598 5595 5594 5595 5597 5596 5594 5593 5593 5592 5589 5588 5586 5584 5584 5584
5636 5636 5636 5635 5634 5633 5631 5631 5630 5628 5627 5626 5625 5624 5621 5620 5618 5616 5614 5613 5611 5610 5609 5607 5606 5603 5601 5596 5593 5591 5593 5594 5593 5591 5590 5588 5587 5586 5583 5584 5584 5584 5583
5631 5631 5632 5631 5630 5629 5628 5627 5626 5625 5624 5623 5621 5621 5619 5617 5615 5614 5612 5610 5608 5607 5606 5605 5603 5601 5598 5593 5590 5588 5592 5591 5590 5589 5587 5585 5583 5578 5576 5578 5580 5580 5579
5627 5627 5628 5628 5627 5626 5625 5624 5623 5622 5621 5620 5619 5618 5617 5614 5612 5611 5609 5608 5606 5605 5605 5604 5602 5600 5597 5592 5588 5585 5590 5589 5588 5588 5586 5581 5578 5574 5572 5575 5576 5576 5576
5623 5623 5624 5624 5624 5623 5622 5621 5620 5619 5619 5618 5617 5616 5615 5613 5611 5609 5607 5606 5605 5603 5602 5602 5601 5599 5596 5592 5588 5585 5586 5587 5586 5586 5585 5581 5573 5570 5568 5568 5571 5570 5569
5619 5620 5620 5620 5621 5620 5619 5618 5617 5617 5616 5615 5614 5613 5612 5612 5611 5607 5606 5604 5603 5602 5601 5600 5599 5599 5596 5592 5588 5583 5581 5580 5581 5581 5582 5578 5570 5567 5565 5566 5566 5565 5564
5616 5617 5617 5618 5618 5618 5618 5616 5616 5615 5614 5613 5612 5611 5611 5610 5609 5607 5605 5604 5604 5603 5602 5602 5600 5598 5597 5592 5586 5583 5580 5578 5578 5579 5575 5571 5567 5565 5567 5566 5564 5563 5567
5614 5614 5615 5615 5616 5617 5617 5615 5615 5614 5613 5611 5610 5610 5610 5609 5608 5607 5607 5606 5605 5603 5602 5601 5599 5598 5596 5594 5590 5587 5583 5579 5578 5578 5574 5569 5568 5566 5566 5566 5568 5569 5570
5613 5613 5614 5614 5615 5616 5615 5615 5614 5613 5611 5610 5610 5610 5611 5610 5608 5608 5606 5605 5603 5601 5597 5597 5596 5595 5593 5588 5580 5579 5581 5580 5578 5574 5575 5576 5576 5574 5574 5573 5572 5571 5570
5612 5613 5613 5614 5615 5615 5615 5615 5614 5612 5610 5609 5609 5611 5611 5610 5610 5609 5607 5601 5599 5596 5593 5590 5588 5589 5585 5580 5578 5575 5573 5570 5568 5570 5575 5575 5575 5574 5573 5572 5571 5570 5568